Private Wetterstation Wechselburg
Wetterdaten: Mittwoch, 20.06.2012
Datum Zeit Temp. +2m Bodentemp. Temp.+5cm Temp. Wind Windchill X Diff Temp. Feuchte +2m Feuchte +5cm Sonnenschein Luftdruck Regen Wind Richtung Richtung Sonnenschein UV Taupunkt Windchill Windben
20.06.2012 00:00 18,8 C 23,3 C 18,4 C 18,7 C 18,4 C 0,0 C 79 % 90 % 0 % 1016,2 hPa 0,0 l/m 1,1 km/h (1 Bft) O-NO 67 0 min 0,0 UV-I 15,1 C 18,4 C 2,6 km/h (1 Bft)
20.06.2012 00:06 18,8 C 23,3 C 18,4 C 18,7 C 18,4 C 0,0 C 80 % 90 % 0 % 1016,5 hPa 0,0 l/m 1,8 km/h (1 Bft) N 0 0 min 0,0 UV-I 15,3 C 18,4 C 2,6 km/h (1 Bft)
20.06.2012 00:20 18,7 C 23,3 C 18,4 C 18,6 C 18,4 C 0,0 C 80 % 90 % 0 % 1016,5 hPa 0,0 l/m 1,9 km/h (1 Bft) O 90 0 min 0,0 UV-I 15,2 C 18,4 C 0,0 km/h (0 Bft)
20.06.2012 00:25 18,7 C 23,3 C 18,4 C 18,6 C 18,3 C 0,0 C 80 % 90 % 0 % 1015,8 hPa 0,0 l/m 1,0 km/h (0 Bft) O-NO 67 0 min 0,0 UV-I 15,2 C 18,3 C 0,0 km/h (0 Bft)
20.06.2012 00:30 18,6 C 23,3 C 18,4 C 18,5 C 18,2 C 0,0 C 80 % 90 % 0 % 1015,8 hPa 0,0 l/m 0,3 km/h (0 Bft) O 90 0 min 0,0 UV-I 15,1 C 18,2 C 0,0 km/h (0 Bft)
20.06.2012 00:35 18,5 C 23,3 C 18,3 C 18,4 C 18,2 C 0,0 C 80 % 91 % 0 % 1015,8 hPa 0,0 l/m 0,0 km/h (0 Bft) O-SO 112 0 min 0,0 UV-I 15,0 C 18,2 C 0,0 km/h (0 Bft)
20.06.2012 00:40 18,5 C 23,3 C 18,3 C 18,4 C 18,1 C 0,0 C 80 % 91 % 0 % 1015,8 hPa 0,0 l/m 0,0 km/h (0 Bft) O-NO 67 0 min 0,0 UV-I 15,0 C 18,1 C 0,0 km/h (0 Bft)
20.06.2012 00:45 18,4 C 23,3 C 18,3 C 18,3 C 18,0 C 0,0 C 81 % 91 % 0 % 1015,8 hPa 0,0 l/m 0,0 km/h (0 Bft) O-SO 112 0 min 0,0 UV-I 15,1 C 18,0 C 0,0 km/h (0 Bft)
20.06.2012 00:50 18,5 C 23,3 C 18,3 C 18,3 C 18,0 C 0,0 C 81 % 91 % 0 % 1015,8 hPa 0,0 l/m 0,0 km/h (0 Bft) O 90 0 min 0,0 UV-I 15,2 C 18,0 C 0,0 km/h (0 Bft)
20.06.2012 00:55 18,3 C 23,3 C 18,3 C 18,2 C 18,0 C 0,0 C 81 % 91 % 0 % 1015,8 hPa 0,0 l/m 0,2 km/h (0 Bft) O 90 0 min 0,0 UV-I 15,0 C 18,0 C 0,0 km/h (0 Bft)
20.06.2012 01:00 18,3 C 23,3 C 18,3 C 18,2 C 18,0 C 0,0 C 81 % 91 % 0 % 1015,8 hPa 0,0 l/m 0,2 km/h (0 Bft) NO 45 0 min 0,0 UV-I 15,0 C 18,0 C 0,0 km/h (0 Bft)
20.06.2012 01:11 18,2 C 23,3 C 18,3 C 18,1 C 17,9 C 0,0 C 82 % 91 % 0 % 1015,4 hPa 0,0 l/m 0,0 km/h (0 Bft) N 0 0 min 0,0 UV-I 15,1 C 17,9 C 0,0 km/h (0 Bft)
20.06.2012 01:20 18,1 C 23,3 C 18,3 C 18,0 C 17,9 C 0,0 C 82 % 91 % 0 % 1015,4 hPa 0,0 l/m 0,0 km/h (0 Bft) S 180 0 min 0,0 UV-I 15,0 C 17,9 C 0,0 km/h (0 Bft)
20.06.2012 01:25 18,1 C 23,3 C 18,3 C 18,0 C 17,8 C 0,0 C 82 % 91 % 0 % 1014,9 hPa 0,0 l/m 0,0 km/h (0 Bft) O-NO 67 0 min 0,0 UV-I 15,0 C 17,8 C 0,0 km/h (0 Bft)
20.06.2012 01:30 18,0 C 23,3 C 18,1 C 17,9 C 17,8 C 0,0 C 82 % 91 % 0 % 1014,9 hPa 0,0 l/m 0,0 km/h (0 Bft) O 90 0 min 0,0 UV-I 14,9 C 17,8 C 0,0 km/h (0 Bft)
20.06.2012 01:35 18,1 C 23,3 C 18,1 C 18,0 C 17,8 C 0,0 C 83 % 91 % 0 % 1014,9 hPa 0,0 l/m 0,0 km/h (0 Bft) NO 45 0 min 0,0 UV-I 15,2 C 17,8 C 0,0 km/h (0 Bft)
20.06.2012 01:40 18,0 C 23,3 C 18,1 C 18,0 C 17,9 C 0,0 C 83 % 91 % 0 % 1014,9 hPa 0,0 l/m 0,0 km/h (0 Bft) O 90 0 min 0,0 UV-I 15,1 C 17,9 C 0,0 km/h (0 Bft)
20.06.2012 01:45 18,0 C 23,3 C 18,1 C 17,9 C 17,8 C 0,0 C 83 % 92 % 0 % 1015,5 hPa 0,0 l/m 0,0 km/h (0 Bft) O-SO 112 0 min 0,0 UV-I 15,1 C 17,8 C 0,0 km/h (0 Bft)
20.06.2012 01:50 17,9 C 23,3 C 18,1 C 17,9 C 17,9 C 0,0 C 83 % 92 % 0 % 1015,5 hPa 0,0 l/m 0,0 km/h (0 Bft) NW 315 0 min 0,0 UV-I 15,0 C 17,9 C 0,0 km/h (0 Bft)
20.06.2012 01:55 17,9 C 23,3 C 18,1 C 18,0 C 18,0 C 0,1 C 83 % 92 % 0 % 1015,5 hPa 0,0 l/m 0,3 km/h (0 Bft) N-NO 22 0 min 0,0 UV-I 15,0 C 18,0 C 0,0 km/h (0 Bft)
20.06.2012 02:00 18,0 C 23,3 C 18,1 C 18,0 C 18,0 C 0,0 C 83 % 92 % 0 % 1015,5 hPa 0,0 l/m 0,6 km/h (0 Bft) SW 225 0 min 0,0 UV-I 15,1 C 18,0 C 0,0 km/h (0 Bft)
20.06.2012 02:07 18,1 C 24,2 C 18,0 C 18,0 C 17,8 C 0,0 C 83 % 92 % 0 % 1015,8 hPa 0,0 l/m 0,8 km/h (0 Bft) N 0 0 min 0,0 UV-I 15,2 C 17,8 C 0,0 km/h (0 Bft)
20.06.2012 02:20 17,7 C 24,2 C 17,9 C 17,5 C 17,1 C 0,0 C 84 % 92 % 0 % 1015,8 hPa 0,0 l/m 0,2 km/h (0 Bft) O-NO 67 0 min 0,0 UV-I 15,0 C 17,1 C 1,8 km/h (1 Bft)
20.06.2012 02:25 17,4 C 24,1 C 17,7 C 17,2 C 16,9 C 0,0 C 85 % 92 % 0 % 1015,7 hPa 0,0 l/m 1,1 km/h (1 Bft) W-SW 247 0 min 0,0 UV-I 14,8 C 16,9 C 6,3 km/h (2 Bft)
20.06.2012 02:30 17,3 C 24,1 C 17,7 C 17,2 C 16,9 C 0,0 C 85 % 92 % 0 % 1015,7 hPa 0,0 l/m 1,9 km/h (1 Bft) SO 135 0 min 0,0 UV-I 14,8 C 16,9 C 3,2 km/h (1 Bft)
20.06.2012 02:35 17,2 C 24,1 C 17,7 C 17,1 C 16,8 C 0,0 C 86 % 92 % 0 % 1015,7 hPa 0,0 l/m 4,0 km/h (1 Bft) SW 225 0 min 0,0 UV-I 14,8 C 16,8 C 9,7 km/h (2 Bft)
20.06.2012 02:40 17,1 C 24,1 C 17,5 C 17,0 C 16,8 C 0,0 C 86 % 92 % 0 % 1015,7 hPa 0,0 l/m 3,7 km/h (1 Bft) SW 225 0 min 0,0 UV-I 14,7 C 16,8 C 2,9 km/h (1 Bft)
20.06.2012 02:45 16,9 C 24,1 C 17,4 C 16,8 C 16,6 C 0,0 C 86 % 92 % 0 % 1015,9 hPa 0,0 l/m 2,4 km/h (1 Bft) NW 315 0 min 0,0 UV-I 14,5 C 16,6 C 0,0 km/h (0 Bft)
20.06.2012 02:50 16,9 C 24,1 C 17,4 C 16,8 C 16,6 C 0,0 C 86 % 92 % 0 % 1015,9 hPa 0,0 l/m 1,3 km/h (1 Bft) NO 45 0 min 0,0 UV-I 14,5 C 16,6 C 3,4 km/h (1 Bft)
20.06.2012 02:55 16,8 C 24,1 C 17,5 C 16,7 C 16,5 C 0,0 C 86 % 93 % 0 % 1015,9 hPa 0,0 l/m 0,3 km/h (0 Bft) S-SO 157 0 min 0,0 UV-I 14,4 C 16,5 C 0,0 km/h (0 Bft)
20.06.2012 03:00 16,7 C 24,1 C 17,4 C 16,6 C 16,4 C 0,0 C 86 % 93 % 0 % 1015,9 hPa 0,0 l/m 0,5 km/h (0 Bft) SO 135 0 min 0,0 UV-I 14,3 C 16,4 C 0,0 km/h (0 Bft)
20.06.2012 03:11 16,4 C 24,1 C 17,2 C 16,3 C 16,2 C 0,0 C 87 % 94 % 0 % 1017,2 hPa 0,0 l/m 2,3 km/h (1 Bft) N 0 0 min 0,0 UV-I 14,2 C 16,2 C 4,7 km/h (1 Bft)
20.06.2012 03:20 16,3 C 24,1 C 17,1 C 16,2 C 16,1 C 0,0 C 87 % 94 % 0 % 1017,2 hPa 0,0 l/m 2,4 km/h (1 Bft) SW 225 0 min 0,0 UV-I 14,1 C 16,1 C 2,1 km/h (1 Bft)
20.06.2012 03:25 16,0 C 24,1 C 17,1 C 16,0 C 16,0 C 0,0 C 88 % 94 % 0 % 1015,8 hPa 0,0 l/m 2,1 km/h (1 Bft) NW 315 0 min 0,0 UV-I 14,0 C 16,0 C 6,1 km/h (2 Bft)
20.06.2012 03:30 16,0 C 24,0 C 17,1 C 16,0 C 15,9 C 0,0 C 88 % 94 % 0 % 1015,8 hPa 0,0 l/m 1,4 km/h (1 Bft) S 180 0 min 0,0 UV-I 14,0 C 15,9 C 0,0 km/h (0 Bft)
20.06.2012 03:35 15,9 C 24,0 C 17,1 C 15,8 C 15,7 C 0,0 C 88 % 94 % 0 % 1015,8 hPa 0,0 l/m 2,6 km/h (1 Bft) W-NW 292 0 min 0,0 UV-I 13,9 C 15,7 C 5,0 km/h (1 Bft)
20.06.2012 03:40 15,9 C 24,0 C 16,9 C 15,8 C 15,7 C 0,0 C 88 % 94 % 0 % 1015,8 hPa 0,0 l/m 3,1 km/h (1 Bft) SO 135 0 min 0,0 UV-I 13,9 C 15,7 C 5,0 km/h (1 Bft)
20.06.2012 03:45 15,7 C 24,0 C 16,9 C 15,7 C 15,6 C 0,0 C 88 % 94 % 0 % 1016,0 hPa 0,0 l/m 2,6 km/h (1 Bft) N-NW 337 0 min 0,0 UV-I 13,7 C 15,6 C 13,4 km/h (3 Bft)
20.06.2012 03:50 15,6 C 24,0 C 16,9 C 15,6 C 15,6 C 0,0 C 88 % 94 % 0 % 1016,0 hPa 0,0 l/m 1,8 km/h (1 Bft) N-NW 337 0 min 0,0 UV-I 13,6 C 15,6 C 9,8 km/h (2 Bft)
20.06.2012 03:55 15,7 C 24,0 C 16,9 C 15,6 C 15,5 C 0,0 C 88 % 94 % 0 % 1016,0 hPa 0,0 l/m 1,8 km/h (1 Bft) W-SW 247 0 min 0,0 UV-I 13,7 C 15,5 C 0,0 km/h (0 Bft)
20.06.2012 04:00 15,6 C 24,0 C 16,8 C 15,6 C 15,5 C 0,0 C 88 % 94 % 0 % 1016,0 hPa 0,0 l/m 1,8 km/h (1 Bft) S-SO 157 0 min 0,0 UV-I 13,6 C 15,5 C 1,6 km/h (1 Bft)
20.06.2012 04:12 15,5 C 24,0 C 16,7 C 15,5 C 15,5 C 0,0 C 89 % 95 % 0 % 1015,5 hPa 0,0 l/m 2,4 km/h (1 Bft) N 0 0 min 0,0 UV-I 13,7 C 15,5 C 0,0 km/h (0 Bft)
20.06.2012 04:20 15,4 C 23,9 C 16,8 C 15,5 C 15,5 C 0,1 C 89 % 95 % 0 % 1015,5 hPa 0,0 l/m 1,9 km/h (1 Bft) O-NO 67 0 min 0,0 UV-I 13,6 C 15,5 C 0,0 km/h (0 Bft)
20.06.2012 04:25 15,4 C 23,9 C 16,7 C 15,5 C 15,5 C 0,1 C 89 % 95 % 0 % 1015,6 hPa 0,0 l/m 0,6 km/h (0 Bft) W 270 0 min 0,0 UV-I 13,6 C 15,5 C 0,0 km/h (0 Bft)
20.06.2012 04:30 15,4 C 23,9 C 16,8 C 15,5 C 15,5 C 0,1 C 89 % 95 % 0 % 1015,6 hPa 0,0 l/m 0,6 km/h (0 Bft) NO 45 0 min 0,0 UV-I 13,6 C 15,5 C 0,0 km/h (0 Bft)
20.06.2012 04:35 15,3 C 23,9 C 16,7 C 15,5 C 15,5 C 0,2 C 89 % 95 % 0 % 1015,6 hPa 0,0 l/m 0,6 km/h (0 Bft) O-NO 67 0 min 0,0 UV-I 13,5 C 15,5 C 2,1 km/h (1 Bft)
20.06.2012 04:40 15,3 C 23,9 C 16,7 C 15,5 C 15,5 C 0,2 C 89 % 95 % 0 % 1015,6 hPa 0,0 l/m 1,1 km/h (1 Bft) O 90 0 min 0,0 UV-I 13,5 C 15,5 C 1,6 km/h (1 Bft)
20.06.2012 04:45 15,3 C 23,9 C 16,7 C 15,5 C 15,5 C 0,2 C 89 % 95 % 0 % 1015,2 hPa 0,0 l/m 0,8 km/h (0 Bft) O-NO 67 0 min 0,0 UV-I 13,5 C 15,5 C 2,1 km/h (1 Bft)
20.06.2012 04:50 15,3 C 23,9 C 16,7 C 15,5 C 15,5 C 0,2 C 90 % 95 % 0 % 1015,2 hPa 0,0 l/m 0,6 km/h (0 Bft) O-NO 67 0 min 0,0 UV-I 13,7 C 15,5 C 2,9 km/h (1 Bft)
20.06.2012 04:55 15,2 C 23,9 C 16,6 C 15,5 C 15,5 C 0,3 C 90 % 95 % 0 % 1015,2 hPa 0,0 l/m 1,1 km/h (1 Bft) O-SO 112 0 min 0,0 UV-I 13,6 C 15,5 C 0,0 km/h (0 Bft)
20.06.2012 05:00 15,2 C 23,9 C 16,7 C 15,5 C 15,5 C 0,3 C 90 % 95 % 0 % 1015,2 hPa 0,0 l/m 1,0 km/h (0 Bft) O-NO 67 0 min 0,0 UV-I 13,6 C 15,5 C 2,4 km/h (1 Bft)
20.06.2012 05:11 15,2 C 23,8 C 16,7 C 15,5 C 15,5 C 0,3 C 90 % 95 % 8 % 1015,7 hPa 0,0 l/m 0,3 km/h (0 Bft) N 0 11 min 0,0 UV-I 13,6 C 15,5 C 0,0 km/h (0 Bft)
20.06.2012 05:20 15,2 C 23,8 C 16,7 C 15,5 C 15,5 C 0,3 C 90 % 95 % 8 % 1015,7 hPa 0,0 l/m 0,3 km/h (0 Bft) O-NO 67 0 min 0,0 UV-I 13,6 C 15,5 C 0,0 km/h (0 Bft)
20.06.2012 05:25 15,3 C 23,8 C 16,7 C 15,5 C 15,5 C 0,2 C 90 % 95 % 5 % 1014,8 hPa 0,0 l/m 1,0 km/h (0 Bft) O-NO 67 0 min 0,0 UV-I 13,7 C 15,5 C 1,9 km/h (1 Bft)
20.06.2012 05:30 15,2 C 23,8 C 16,6 C 15,5 C 15,5 C 0,3 C 90 % 95 % 8 % 1014,8 hPa 0,0 l/m 1,9 km/h (1 Bft) O-NO 67 0 min 0,0 UV-I 13,6 C 15,5 C 3,2 km/h (1 Bft)
20.06.2012 05:35 15,2 C 23,8 C 16,6 C 15,5 C 15,5 C 0,3 C 90 % 95 % 8 % 1014,8 hPa 0,0 l/m 2,6 km/h (1 Bft) O 90 0 min 0,0 UV-I 13,6 C 15,5 C 3,9 km/h (1 Bft)
20.06.2012 05:40 15,3 C 23,8 C 16,5 C 15,4 C 15,4 C 0,1 C 90 % 96 % 3 % 1014,8 hPa 0,0 l/m 2,9 km/h (1 Bft) O-NO 67 0 min 0,0 UV-I 13,7 C 15,4 C 2,6 km/h (1 Bft)
20.06.2012 05:45 15,3 C 23,8 C 16,5 C 15,4 C 15,4 C 0,1 C 90 % 96 % 3 % 1014,6 hPa 0,0 l/m 2,6 km/h (1 Bft) O 90 0 min 0,0 UV-I 13,7 C 15,4 C 2,4 km/h (1 Bft)
20.06.2012 05:50 15,2 C 23,7 C 16,7 C 15,4 C 15,4 C 0,2 C 90 % 96 % 5 % 1014,6 hPa 0,0 l/m 1,4 km/h (1 Bft) SO 135 0 min 0,0 UV-I 13,6 C 15,4 C 0,0 km/h (0 Bft)
20.06.2012 05:55 15,2 C 23,7 C 16,6 C 15,4 C 15,4 C 0,2 C 90 % 96 % 5 % 1014,6 hPa 0,0 l/m 1,1 km/h (1 Bft) O-NO 67 0 min 0,0 UV-I 13,6 C 15,4 C 5,0 km/h (1 Bft)
20.06.2012 06:00 15,2 C 23,7 C 16,5 C 15,5 C 15,5 C 0,3 C 90 % 96 % 8 % 1014,6 hPa 0,0 l/m 2,1 km/h (1 Bft) O-NO 67 0 min 0,0 UV-I 13,6 C 15,5 C 4,7 km/h (1 Bft)
20.06.2012 06:11 15,2 C 23,7 C 16,5 C 15,5 C 15,5 C 0,3 C 91 % 96 % 8 % 1014,2 hPa 0,0 l/m 1,3 km/h (1 Bft) N 0 0 min 0,0 UV-I 13,7 C 15,5 C 0,0 km/h (0 Bft)
20.06.2012 06:20 15,2 C 23,7 C 16,5 C 15,5 C 15,5 C 0,3 C 91 % 96 % 8 % 1014,2 hPa 0,0 l/m 0,3 km/h (0 Bft) O-SO 112 0 min 0,0 UV-I 13,7 C 15,5 C 0,0 km/h (0 Bft)
20.06.2012 06:25 15,2 C 23,7 C 16,7 C 15,7 C 15,7 C 0,5 C 91 % 96 % 13 % 1014,3 hPa 0,0 l/m 0,2 km/h (0 Bft) NO 45 0 min 0,0 UV-I 13,7 C 15,7 C 0,0 km/h (0 Bft)
20.06.2012 06:30 15,3 C 23,7 C 16,6 C 15,8 C 15,8 C 0,5 C 91 % 96 % 13 % 1014,3 hPa 0,0 l/m 0,2 km/h (0 Bft) N-NO 22 0 min 0,0 UV-I 13,8 C 15,8 C 0,0 km/h (0 Bft)
20.06.2012 06:35 15,4 C 23,7 C 16,7 C 16,1 C 16,1 C 0,7 C 91 % 96 % 18 % 1014,3 hPa 0,0 l/m 0,0 km/h (0 Bft) NO 45 0 min 0,0 UV-I 13,9 C 16,1 C 0,0 km/h (0 Bft)
20.06.2012 06:40 15,5 C 23,7 C 16,8 C 16,4 C 16,4 C 0,9 C 91 % 96 % 24 % 1014,3 hPa 0,0 l/m 0,0 km/h (0 Bft) NW 315 0 min 0,0 UV-I 14,0 C 16,4 C 0,0 km/h (0 Bft)
20.06.2012 06:45 15,6 C 23,6 C 16,9 C 16,8 C 16,8 C 1,2 C 91 % 96 % 32 % 1014,2 hPa 0,0 l/m 0,0 km/h (0 Bft) O-NO 67 0 min 0,0 UV-I 14,1 C 16,8 C 0,0 km/h (0 Bft)
20.06.2012 06:50 15,7 C 23,6 C 16,9 C 16,9 C 16,9 C 1,2 C 91 % 96 % 32 % 1014,2 hPa 0,0 l/m 0,0 km/h (0 Bft) O-NO 67 0 min 0,0 UV-I 14,2 C 16,9 C 0,0 km/h (0 Bft)
20.06.2012 06:55 15,7 C 23,6 C 16,9 C 17,0 C 17,0 C 1,3 C 91 % 96 % 34 % 1014,2 hPa 0,0 l/m 0,0 km/h (0 Bft) W-SW 247 0 min 0,0 UV-I 14,2 C 17,0 C 0,0 km/h (0 Bft)
20.06.2012 07:00 15,7 C 23,6 C 16,9 C 17,1 C 17,1 C 1,4 C 91 % 96 % 37 % 1014,2 hPa 0,0 l/m 0,0 km/h (0 Bft) O-NO 67 0 min 0,0 UV-I 14,2 C 17,1 C 0,0 km/h (0 Bft)
20.06.2012 07:12 15,9 C 23,6 C 17,1 C 17,7 C 17,7 C 1,8 C 91 % 96 % 47 % 1014,4 hPa 0,0 l/m 0,0 km/h (0 Bft) N 0 0 min 0,0 UV-I 14,4 C 17,7 C 0,0 km/h (0 Bft)
20.06.2012 07:20 15,9 C 23,6 C 17,0 C 18,0 C 18,0 C 2,1 C 91 % 96 % 55 % 1014,4 hPa 0,0 l/m 0,0 km/h (0 Bft) N 360 0 min 0,0 UV-I 14,4 C 18,0 C 0,0 km/h (0 Bft)
20.06.2012 07:25 16,0 C 23,6 C 17,1 C 18,8 C 18,8 C 2,8 C 91 % 96 % 74 % 1014,6 hPa 0,0 l/m 0,0 km/h (0 Bft) N 360 0 min 0,0 UV-I 14,5 C 18,8 C 0,0 km/h (0 Bft)
20.06.2012 07:30 16,1 C 23,5 C 17,1 C 19,2 C 19,2 C 3,1 C 91 % 96 % 82 % 1014,6 hPa 0,0 l/m 0,0 km/h (0 Bft) N 360 0 min 0,0 UV-I 14,6 C 19,2 C 0,0 km/h (0 Bft)
20.06.2012 07:35 16,5 C 23,5 C 17,1 C 20,5 C 20,5 C 4,0 C 91 % 96 % 100 % 1014,6 hPa 0,0 l/m 0,2 km/h (0 Bft) W-NW 292 5 min 0,0 UV-I 15,0 C 20,5 C 0,0 km/h (0 Bft)
20.06.2012 07:40 16,5 C 23,5 C 17,1 C 20,5 C 20,5 C 4,0 C 91 % 96 % 100 % 1014,6 hPa 0,0 l/m 0,2 km/h (0 Bft) S-SW 202 5 min 0,0 UV-I 15,0 C 20,5 C 0,0 km/h (0 Bft)
20.06.2012 07:45 16,7 C 23,5 C 17,2 C 20,3 C 20,3 C 3,6 C 92 % 96 % 95 % 1014,6 hPa 0,0 l/m 0,2 km/h (0 Bft) NO 45 5 min 0,0 UV-I 15,4 C 20,3 C 0,0 km/h (0 Bft)
20.06.2012 07:50 16,8 C 23,4 C 17,1 C 20,6 C 20,6 C 3,8 C 92 % 96 % 100 % 1014,6 hPa 0,0 l/m 0,2 km/h (0 Bft) NW 315 5 min 0,0 UV-I 15,5 C 20,6 C 0,0 km/h (0 Bft)
20.06.2012 07:55 16,9 C 23,4 C 17,3 C 20,8 C 20,8 C 3,9 C 92 % 96 % 100 % 1014,6 hPa 0,0 l/m 0,0 km/h (0 Bft) N 360 5 min 0,0 UV-I 15,6 C 20,8 C 0,0 km/h (0 Bft)
20.06.2012 08:00 17,1 C 23,4 C 17,3 C 21,6 C 21,6 C 4,5 C 92 % 96 % 100 % 1014,6 hPa 0,0 l/m 0,0 km/h (0 Bft) NO 45 5 min 0,0 UV-I 15,8 C 21,6 C 0,0 km/h (0 Bft)
20.06.2012 08:11 17,8 C 23,4 C 17,4 C 22,5 C 22,5 C 4,7 C 91 % 96 % 100 % 1013,9 hPa 0,0 l/m 0,0 km/h (0 Bft) N 0 11 min 0,0 UV-I 16,3 C 22,5 C 0,0 km/h (0 Bft)
20.06.2012 08:20 17,9 C 23,4 C 17,5 C 22,9 C 22,9 C 5,0 C 91 % 96 % 100 % 1013,9 hPa 0,0 l/m 0,6 km/h (0 Bft) SW 225 9 min 0,0 UV-I 16,4 C 22,9 C 3,1 km/h (1 Bft)
20.06.2012 08:25 18,0 C 23,4 C 17,5 C 22,1 C 22,1 C 4,1 C 90 % 96 % 100 % 1014,2 hPa 0,0 l/m 1,9 km/h (1 Bft) W-SW 247 5 min 0,0 UV-I 16,3 C 22,1 C 2,7 km/h (1 Bft)
20.06.2012 08:30 17,9 C 23,4 C 17,5 C 21,2 C 21,2 C 3,3 C 90 % 96 % 87 % 1014,2 hPa 0,0 l/m 2,1 km/h (1 Bft) W 270 5 min 0,0 UV-I 16,2 C 21,2 C 0,0 km/h (0 Bft)
20.06.2012 08:35 17,9 C 23,4 C 17,4 C 21,0 C 21,0 C 3,1 C 90 % 96 % 82 % 1014,2 hPa 0,0 l/m 1,0 km/h (0 Bft) W-SW 247 0 min 0,0 UV-I 16,2 C 21,0 C 3,7 km/h (1 Bft)
20.06.2012 08:40 17,9 C 23,4 C 17,5 C 20,8 C 20,8 C 2,9 C 90 % 96 % 76 % 1014,2 hPa 0,0 l/m 1,4 km/h (1 Bft) S 180 0 min 0,0 UV-I 16,2 C 20,8 C 3,7 km/h (1 Bft)
20.06.2012 08:45 18,0 C 23,4 C 17,5 C 20,8 C 20,8 C 2,8 C 90 % 96 % 74 % 1014,2 hPa 0,0 l/m 1,9 km/h (1 Bft) S-SW 202 0 min 0,0 UV-I 16,3 C 20,8 C 1,9 km/h (1 Bft)
20.06.2012 08:50 18,0 C 23,4 C 17,5 C 20,9 C 20,9 C 2,9 C 89 % 96 % 76 % 1014,2 hPa 0,0 l/m 1,8 km/h (1 Bft) S 180 0 min 0,0 UV-I 16,2 C 20,9 C 2,7 km/h (1 Bft)
20.06.2012 08:55 18,1 C 23,3 C 17,5 C 20,8 C 20,8 C 2,7 C 89 % 96 % 71 % 1014,2 hPa 0,0 l/m 1,4 km/h (1 Bft) W-SW 247 0 min 0,0 UV-I 16,3 C 20,8 C 3,7 km/h (1 Bft)
20.06.2012 09:00 18,1 C 23,3 C 17,6 C 21,1 C 21,1 C 3,0 C 89 % 96 % 79 % 1014,2 hPa 0,0 l/m 1,4 km/h (1 Bft) W-SW 247 0 min 0,0 UV-I 16,3 C 21,1 C 1,6 km/h (1 Bft)
20.06.2012 09:11 18,4 C 23,3 C 17,7 C 21,7 C 21,7 C 3,3 C 88 % 96 % 87 % 1014,2 hPa 0,0 l/m 1,6 km/h (1 Bft) N 0 11 min 0,0 UV-I 16,4 C 21,7 C 0,0 km/h (0 Bft)
20.06.2012 09:20 18,4 C 23,3 C 17,7 C 21,5 C 21,5 C 3,1 C 87 % 96 % 82 % 1014,2 hPa 0,0 l/m 1,4 km/h (1 Bft) S 180 0 min 0,0 UV-I 16,2 C 21,5 C 0,0 km/h (0 Bft)
20.06.2012 09:25 18,5 C 23,3 C 17,6 C 21,0 C 21,0 C 2,5 C 87 % 95 % 66 % 1013,9 hPa 0,0 l/m 1,3 km/h (1 Bft) SW 225 0 min 0,0 UV-I 16,3 C 21,0 C 2,1 km/h (1 Bft)
20.06.2012 09:30 18,5 C 23,3 C 17,7 C 21,0 C 21,0 C 2,5 C 87 % 95 % 66 % 1013,9 hPa 0,0 l/m 1,4 km/h (1 Bft) W 270 0 min 0,0 UV-I 16,3 C 21,0 C 2,1 km/h (1 Bft)
20.06.2012 09:35 18,6 C 23,3 C 17,7 C 21,1 C 21,1 C 2,5 C 88 % 95 % 66 % 1013,9 hPa 0,0 l/m 1,6 km/h (1 Bft) W 270 0 min 0,0 UV-I 16,6 C 21,1 C 0,0 km/h (0 Bft)
20.06.2012 09:40 18,7 C 23,3 C 17,7 C 21,1 C 21,1 C 2,4 C 88 % 95 % 63 % 1013,9 hPa 0,0 l/m 1,0 km/h (0 Bft) SO 135 0 min 0,0 UV-I 16,7 C 21,1 C 0,0 km/h (0 Bft)
20.06.2012 09:45 18,8 C 23,3 C 17,7 C 21,2 C 21,2 C 2,4 C 87 % 95 % 63 % 1014,3 hPa 0,0 l/m 0,2 km/h (0 Bft) W-SW 247 0 min 0,0 UV-I 16,6 C 21,2 C 0,0 km/h (0 Bft)
20.06.2012 09:50 18,9 C 23,3 C 17,7 C 21,2 C 21,2 C 2,3 C 87 % 95 % 61 % 1014,3 hPa 0,0 l/m 0,0 km/h (0 Bft) SO 135 0 min 0,0 UV-I 16,7 C 21,2 C 0,0 km/h (0 Bft)
20.06.2012 09:55 19,0 C 23,3 C 17,8 C 20,8 C 20,8 C 1,8 C 87 % 95 % 47 % 1014,3 hPa 0,0 l/m 0,0 km/h (0 Bft) W-SW 247 0 min 0,0 UV-I 16,8 C 20,8 C 0,0 km/h (0 Bft)
20.06.2012 10:00 19,2 C 23,3 C 17,9 C 20,6 C 20,6 C 1,4 C 87 % 95 % 37 % 1014,3 hPa 0,0 l/m 0,0 km/h (0 Bft) W-SW 247 0 min 0,0 UV-I 17,0 C 20,6 C 0,0 km/h (0 Bft)
20.06.2012 10:11 19,3 C 23,3 C 17,9 C 20,1 C 20,1 C 0,8 C 87 % 95 % 21 % 1014,1 hPa 0,0 l/m 0,2 km/h (0 Bft) N 0 0 min 0,0 UV-I 17,1 C 20,1 C 0,0 km/h (0 Bft)
20.06.2012 10:20 19,1 C 23,3 C 17,9 C 19,9 C 19,9 C 0,8 C 86 % 95 % 21 % 1014,1 hPa 0,0 l/m 0,2 km/h (0 Bft) N 360 0 min 0,0 UV-I 16,7 C 19,9 C 0,0 km/h (0 Bft)
20.06.2012 10:25 19,1 C 23,3 C 17,7 C 19,8 C 19,8 C 0,7 C 86 % 95 % 18 % 1014,1 hPa 0,0 l/m 0,0 km/h (0 Bft) SO 135 0 min 0,0 UV-I 16,7 C 19,8 C 0,0 km/h (0 Bft)
20.06.2012 10:30 18,8 C 23,3 C 17,7 C 19,7 C 19,7 C 0,9 C 86 % 95 % 24 % 1014,1 hPa 0,0 l/m 0,3 km/h (0 Bft) W-SW 247 0 min 0,0 UV-I 16,4 C 19,7 C 0,0 km/h (0 Bft)
20.06.2012 10:35 18,8 C 23,3 C 17,9 C 19,9 C 19,9 C 1,1 C 86 % 95 % 29 % 1014,1 hPa 0,0 l/m 0,8 km/h (0 Bft) N-NO 22 0 min 0,0 UV-I 16,4 C 19,9 C 3,2 km/h (1 Bft)
20.06.2012 10:40 18,9 C 23,3 C 17,8 C 20,1 C 20,1 C 1,2 C 86 % 95 % 32 % 1014,1 hPa 0,0 l/m 1,0 km/h (0 Bft) W 270 0 min 0,0 UV-I 16,5 C 20,1 C 1,8 km/h (1 Bft)
20.06.2012 10:45 18,9 C 23,3 C 17,7 C 20,1 C 20,1 C 1,2 C 86 % 95 % 32 % 1013,8 hPa 0,0 l/m 0,8 km/h (0 Bft) N-NO 22 0 min 0,0 UV-I 16,5 C 20,1 C 0,0 km/h (0 Bft)
20.06.2012 10:50 18,8 C 23,3 C 17,9 C 20,2 C 20,2 C 1,4 C 86 % 95 % 37 % 1013,8 hPa 0,0 l/m 0,2 km/h (0 Bft) W 270 0 min 0,0 UV-I 16,4 C 20,2 C 0,0 km/h (0 Bft)
20.06.2012 10:55 18,8 C 23,3 C 17,9 C 20,3 C 20,3 C 1,5 C 87 % 95 % 39 % 1013,8 hPa 0,0 l/m 0,5 km/h (0 Bft) SW 225 0 min 0,0 UV-I 16,6 C 20,3 C 0,0 km/h (0 Bft)
20.06.2012 11:00 18,8 C 23,3 C 17,9 C 20,4 C 20,4 C 1,6 C 87 % 95 % 42 % 1013,8 hPa 0,0 l/m 0,5 km/h (0 Bft) W-SW 247 0 min 0,0 UV-I 16,6 C 20,4 C 1,9 km/h (1 Bft)
20.06.2012 11:11 18,8 C 23,3 C 17,9 C 20,9 C 20,9 C 2,1 C 87 % 95 % 55 % 1014,2 hPa 0,0 l/m 1,0 km/h (0 Bft) N 0 0 min 0,0 UV-I 16,6 C 20,9 C 0,0 km/h (0 Bft)
20.06.2012 11:20 18,8 C 23,3 C 18,0 C 21,0 C 21,0 C 2,2 C 87 % 95 % 58 % 1014,2 hPa 0,0 l/m 0,6 km/h (0 Bft) N-NO 22 0 min 0,0 UV-I 16,6 C 21,0 C 0,0 km/h (0 Bft)
20.06.2012 11:25 19,0 C 23,3 C 17,9 C 21,4 C 21,4 C 2,4 C 87 % 95 % 63 % 1014,3 hPa 0,0 l/m 0,3 km/h (0 Bft) W 270 0 min 0,0 UV-I 16,8 C 21,4 C 0,0 km/h (0 Bft)
20.06.2012 11:30 19,1 C 23,3 C 17,9 C 21,5 C 21,5 C 2,4 C 87 % 95 % 63 % 1014,3 hPa 0,0 l/m 0,8 km/h (0 Bft) N-NW 337 0 min 0,0 UV-I 16,9 C 21,5 C 2,1 km/h (1 Bft)
20.06.2012 11:35 19,1 C 23,3 C 18,0 C 21,3 C 21,3 C 2,2 C 86 % 95 % 58 % 1014,3 hPa 0,0 l/m 1,3 km/h (1 Bft) W 270 0 min 0,0 UV-I 16,7 C 21,3 C 2,1 km/h (1 Bft)
20.06.2012 11:40 19,1 C 23,3 C 18,0 C 21,5 C 21,5 C 2,4 C 86 % 95 % 63 % 1014,3 hPa 0,0 l/m 1,4 km/h (1 Bft) N 360 0 min 0,0 UV-I 16,7 C 21,5 C 3,5 km/h (1 Bft)
20.06.2012 11:45 19,1 C 23,3 C 18,0 C 21,8 C 21,8 C 2,7 C 86 % 95 % 71 % 1013,9 hPa 0,0 l/m 2,1 km/h (1 Bft) N-NO 22 0 min 0,0 UV-I 16,7 C 21,8 C 3,4 km/h (1 Bft)
20.06.2012 11:50 19,1 C 23,3 C 18,0 C 21,7 C 21,7 C 2,6 C 86 % 95 % 68 % 1013,9 hPa 0,0 l/m 1,6 km/h (1 Bft) NW 315 0 min 0,0 UV-I 16,7 C 21,7 C 0,0 km/h (0 Bft)
20.06.2012 11:55 19,1 C 23,3 C 18,0 C 21,7 C 21,7 C 2,6 C 86 % 95 % 68 % 1013,9 hPa 0,0 l/m 1,3 km/h (1 Bft) N-NO 22 0 min 0,0 UV-I 16,7 C 21,7 C 0,0 km/h (0 Bft)
20.06.2012 12:00 19,1 C 23,3 C 18,0 C 22,0 C 22,0 C 2,9 C 86 % 95 % 76 % 1013,9 hPa 0,0 l/m 1,0 km/h (0 Bft) N-NW 337 0 min 0,0 UV-I 16,7 C 22,0 C 0,0 km/h (0 Bft)
20.06.2012 12:11 19,6 C 23,2 C 18,1 C 23,4 C 23,4 C 3,8 C 85 % 95 % 100 % 1013,8 hPa 0,0 l/m 0,5 km/h (0 Bft) N 0 11 min 0,0 UV-I 17,0 C 23,4 C 0,0 km/h (0 Bft)
20.06.2012 12:20 19,8 C 23,1 C 18,2 C 23,3 C 23,3 C 3,5 C 85 % 95 % 92 % 1013,8 hPa 0,0 l/m 0,8 km/h (0 Bft) NW 315 9 min 0,0 UV-I 17,2 C 23,3 C 0,0 km/h (0 Bft)
20.06.2012 12:25 19,8 C 23,2 C 18,3 C 23,0 C 23,0 C 3,2 C 84 % 96 % 84 % 1014,2 hPa 0,0 l/m 1,1 km/h (1 Bft) W-SW 247 0 min 0,0 UV-I 17,0 C 23,0 C 0,0 km/h (0 Bft)
20.06.2012 12:30 19,7 C 23,1 C 18,2 C 22,9 C 22,9 C 3,2 C 84 % 95 % 84 % 1014,2 hPa 0,0 l/m 1,3 km/h (1 Bft) O 90 0 min 0,0 UV-I 16,9 C 22,9 C 0,0 km/h (0 Bft)
20.06.2012 12:35 19,8 C 23,2 C 18,2 C 22,9 C 22,9 C 3,1 C 85 % 95 % 82 % 1014,2 hPa 0,0 l/m 1,3 km/h (1 Bft) N-NW 337 0 min 0,0 UV-I 17,2 C 22,9 C 2,3 km/h (1 Bft)
20.06.2012 12:40 19,9 C 23,2 C 18,3 C 23,4 C 23,4 C 3,5 C 85 % 96 % 92 % 1014,2 hPa 0,0 l/m 2,1 km/h (1 Bft) N-NO 22 5 min 0,0 UV-I 17,3 C 23,4 C 4,5 km/h (1 Bft)
20.06.2012 12:45 20,0 C 23,2 C 18,3 C 23,8 C 23,8 C 3,8 C 84 % 96 % 100 % 1014,1 hPa 0,0 l/m 2,3 km/h (1 Bft) NW 315 5 min 0,0 UV-I 17,2 C 23,8 C 0,0 km/h (0 Bft)
20.06.2012 12:50 19,9 C 23,2 C 18,3 C 23,6 C 23,6 C 3,7 C 83 % 96 % 97 % 1014,1 hPa 0,0 l/m 2,1 km/h (1 Bft) SW 225 5 min 0,0 UV-I 16,9 C 23,6 C 3,7 km/h (1 Bft)
20.06.2012 12:55 19,9 C 23,2 C 18,3 C 23,3 C 23,3 C 3,4 C 83 % 96 % 89 % 1014,1 hPa 0,0 l/m 1,6 km/h (1 Bft) N 360 5 min 0,0 UV-I 16,9 C 23,3 C 3,2 km/h (1 Bft)
20.06.2012 13:00 19,9 C 23,2 C 18,3 C 23,0 C 23,0 C 3,1 C 83 % 96 % 82 % 1014,1 hPa 0,0 l/m 1,6 km/h (1 Bft) W 270 0 min 0,0 UV-I 16,9 C 23,0 C 2,9 km/h (1 Bft)
20.06.2012 13:11 19,6 C 23,2 C 18,4 C 21,7 C 21,7 C 2,1 C 85 % 95 % 55 % 1014,1 hPa 0,0 l/m 1,9 km/h (1 Bft) N 0 0 min 0,0 UV-I 17,0 C 21,7 C 1,9 km/h (1 Bft)
20.06.2012 13:20 19,6 C 23,2 C 18,5 C 22,0 C 22,0 C 2,4 C 85 % 95 % 63 % 1014,1 hPa 0,0 l/m 2,4 km/h (1 Bft) O-SO 112 0 min 0,0 UV-I 17,0 C 22,0 C 3,2 km/h (1 Bft)
20.06.2012 13:25 19,7 C 23,3 C 18,4 C 21,7 C 21,7 C 2,0 C 85 % 95 % 53 % 1014,1 hPa 0,0 l/m 2,6 km/h (1 Bft) O 90 0 min 0,0 UV-I 17,1 C 21,7 C 4,2 km/h (1 Bft)
20.06.2012 13:30 19,4 C 23,3 C 18,4 C 21,2 C 21,2 C 1,8 C 84 % 95 % 47 % 1014,1 hPa 0,0 l/m 3,1 km/h (1 Bft) O-NO 67 0 min 0,0 UV-I 16,6 C 21,2 C 5,0 km/h (1 Bft)
20.06.2012 13:35 19,2 C 23,2 C 18,4 C 20,7 C 20,7 C 1,5 C 85 % 95 % 39 % 1014,1 hPa 0,0 l/m 3,2 km/h (1 Bft) O-SO 112 0 min 0,0 UV-I 16,6 C 20,7 C 1,9 km/h (1 Bft)
20.06.2012 13:40 19,2 C 23,3 C 18,4 C 20,6 C 20,6 C 1,4 C 86 % 95 % 37 % 1014,1 hPa 0,0 l/m 2,1 km/h (1 Bft) O-SO 112 0 min 0,0 UV-I 16,8 C 20,6 C 0,0 km/h (0 Bft)
20.06.2012 13:45 19,2 C 23,3 C 18,3 C 20,8 C 20,8 C 1,6 C 86 % 95 % 42 % 1014,1 hPa 0,0 l/m 0,5 km/h (0 Bft) O-NO 67 0 min 0,0 UV-I 16,8 C 20,8 C 0,0 km/h (0 Bft)
20.06.2012 13:50 19,4 C 23,3 C 18,3 C 21,3 C 21,3 C 1,9 C 87 % 95 % 50 % 1014,1 hPa 0,0 l/m 0,5 km/h (0 Bft) O 90 0 min 0,0 UV-I 17,2 C 21,3 C 0,0 km/h (0 Bft)
20.06.2012 13:55 19,4 C 23,3 C 18,3 C 21,5 C 21,5 C 2,1 C 86 % 95 % 55 % 1014,1 hPa 0,0 l/m 1,6 km/h (1 Bft) O 90 0 min 0,0 UV-I 17,0 C 21,5 C 3,1 km/h (1 Bft)
20.06.2012 14:00 19,4 C 23,3 C 18,4 C 21,7 C 21,7 C 2,3 C 86 % 95 % 61 % 1014,1 hPa 0,0 l/m 1,9 km/h (1 Bft) O-NO 67 0 min 0,0 UV-I 17,0 C 21,7 C 1,9 km/h (1 Bft)
20.06.2012 14:11 19,7 C 23,3 C 18,4 C 22,6 C 22,6 C 2,9 C 85 % 95 % 76 % 1014,0 hPa 0,0 l/m 1,1 km/h (1 Bft) N 0 0 min 0,0 UV-I 17,1 C 22,6 C 0,0 km/h (0 Bft)
20.06.2012 14:20 19,6 C 23,3 C 18,4 C 22,4 C 22,4 C 2,8 C 86 % 95 % 74 % 1014,0 hPa 0,0 l/m 1,3 km/h (1 Bft) N-NW 337 0 min 0,0 UV-I 17,2 C 22,4 C 1,9 km/h (1 Bft)
20.06.2012 14:25 19,7 C 23,3 C 18,4 C 22,4 C 22,4 C 2,7 C 86 % 95 % 71 % 1013,6 hPa 0,0 l/m 0,3 km/h (0 Bft) O-NO 67 0 min 0,0 UV-I 17,3 C 22,4 C 0,0 km/h (0 Bft)
20.06.2012 14:30 19,7 C 23,3 C 18,5 C 22,4 C 22,4 C 2,7 C 86 % 95 % 71 % 1013,6 hPa 0,0 l/m 0,2 km/h (0 Bft) O-SO 112 0 min 0,0 UV-I 17,3 C 22,4 C 0,0 km/h (0 Bft)
20.06.2012 14:35 19,8 C 23,4 C 18,5 C 22,1 C 22,1 C 2,3 C 85 % 95 % 61 % 1013,6 hPa 0,0 l/m 1,0 km/h (0 Bft) O 90 0 min 0,0 UV-I 17,2 C 22,1 C 3,1 km/h (1 Bft)
20.06.2012 14:40 19,6 C 23,3 C 18,5 C 22,1 C 22,1 C 2,5 C 85 % 95 % 66 % 1013,6 hPa 0,0 l/m 1,9 km/h (1 Bft) SW 225 0 min 0,0 UV-I 17,0 C 22,1 C 0,0 km/h (0 Bft)
20.06.2012 14:45 19,3 C 23,4 C 18,5 C 21,5 C 21,5 C 2,2 C 85 % 95 % 58 % 1013,8 hPa 0,0 l/m 4,2 km/h (1 Bft) O-NO 67 0 min 0,0 UV-I 16,7 C 21,5 C 5,8 km/h (2 Bft)
20.06.2012 14:50 19,2 C 23,4 C 18,5 C 21,2 C 21,2 C 2,0 C 85 % 95 % 53 % 1013,8 hPa 0,0 l/m 5,0 km/h (1 Bft) O-SO 112 0 min 0,0 UV-I 16,6 C 21,2 C 2,9 km/h (1 Bft)
20.06.2012 14:55 19,2 C 23,3 C 18,6 C 21,7 C 21,7 C 2,5 C 86 % 95 % 66 % 1013,8 hPa 0,0 l/m 3,7 km/h (1 Bft) O 90 0 min 0,0 UV-I 16,8 C 21,7 C 3,2 km/h (1 Bft)
20.06.2012 15:00 19,3 C 23,3 C 18,5 C 21,7 C 21,7 C 2,4 C 87 % 95 % 63 % 1013,8 hPa 0,0 l/m 2,1 km/h (1 Bft) O 90 0 min 0,0 UV-I 17,1 C 21,7 C 2,7 km/h (1 Bft)
20.06.2012 15:11 19,1 C 23,3 C 18,6 C 21,6 C 21,6 C 2,5 C 86 % 95 % 66 % 1013,8 hPa 0,0 l/m 3,9 km/h (1 Bft) N 0 0 min 0,0 UV-I 16,7 C 21,6 C 5,3 km/h (1 Bft)
20.06.2012 15:20 19,3 C 23,3 C 18,6 C 22,3 C 22,3 C 3,0 C 87 % 95 % 79 % 1013,8 hPa 0,0 l/m 3,7 km/h (1 Bft) O-NO 67 0 min 0,0 UV-I 17,1 C 22,3 C 4,2 km/h (1 Bft)
20.06.2012 15:25 19,4 C 23,3 C 18,7 C 22,9 C 22,9 C 3,5 C 87 % 95 % 92 % 1013,4 hPa 0,0 l/m 3,2 km/h (1 Bft) O-SO 112 5 min 0,0 UV-I 17,2 C 22,9 C 0,0 km/h (0 Bft)
20.06.2012 15:30 19,6 C 23,3 C 18,8 C 23,5 C 23,5 C 3,9 C 87 % 95 % 100 % 1013,4 hPa 0,0 l/m 3,1 km/h (1 Bft) O 90 5 min 0,0 UV-I 17,4 C 23,5 C 2,6 km/h (1 Bft)
20.06.2012 15:35 19,7 C 23,3 C 18,8 C 23,6 C 23,6 C 3,9 C 86 % 95 % 100 % 1013,4 hPa 0,0 l/m 3,4 km/h (1 Bft) NO 45 5 min 0,0 UV-I 17,3 C 23,6 C 4,5 km/h (1 Bft)
20.06.2012 15:40 19,5 C 23,3 C 18,8 C 22,5 C 22,5 C 3,0 C 85 % 95 % 79 % 1013,4 hPa 0,0 l/m 5,0 km/h (1 Bft) O 90 0 min 0,0 UV-I 16,9 C 22,5 C 6,4 km/h (2 Bft)
20.06.2012 15:45 19,3 C 23,3 C 18,8 C 21,8 C 21,8 C 2,5 C 86 % 95 % 66 % 1013,6 hPa 0,0 l/m 6,3 km/h (2 Bft) O-SO 112 0 min 0,0 UV-I 16,9 C 21,8 C 6,3 km/h (2 Bft)
20.06.2012 15:50 19,3 C 23,4 C 18,8 C 21,4 C 21,4 C 2,1 C 86 % 95 % 55 % 1013,6 hPa 0,0 l/m 5,6 km/h (1 Bft) SO 135 0 min 0,0 UV-I 16,9 C 21,4 C 5,6 km/h (1 Bft)
20.06.2012 15:55 19,2 C 23,4 C 18,7 C 21,3 C 21,3 C 2,1 C 86 % 95 % 55 % 1013,6 hPa 0,0 l/m 3,7 km/h (1 Bft) O 90 0 min 0,0 UV-I 16,8 C 21,3 C 4,8 km/h (1 Bft)
20.06.2012 16:00 19,2 C 23,4 C 18,7 C 21,1 C 21,1 C 1,9 C 86 % 95 % 50 % 1013,6 hPa 0,0 l/m 3,5 km/h (1 Bft) N-NO 22 0 min 0,0 UV-I 16,8 C 21,1 C 5,8 km/h (2 Bft)
20.06.2012 16:07 19,3 C 23,4 C 18,7 C 20,6 C 20,6 C 1,3 C 86 % 95 % 34 % 1013,1 hPa 0,0 l/m 3,7 km/h (1 Bft) N 0 0 min 0,0 UV-I 16,9 C 20,6 C 4,2 km/h (1 Bft)
20.06.2012 16:20 19,2 C 23,4 C 18,7 C 20,9 C 20,9 C 1,7 C 86 % 95 % 45 % 1013,1 hPa 0,0 l/m 4,3 km/h (1 Bft) O-SO 112 0 min 0,0 UV-I 16,8 C 20,9 C 7,7 km/h (2 Bft)
20.06.2012 16:25 19,3 C 23,4 C 18,7 C 20,9 C 20,9 C 1,6 C 86 % 95 % 42 % 1013,4 hPa 0,0 l/m 4,5 km/h (1 Bft) O-SO 112 0 min 0,0 UV-I 16,9 C 20,9 C 3,7 km/h (1 Bft)
20.06.2012 16:30 19,2 C 23,4 C 18,7 C 20,8 C 20,8 C 1,6 C 86 % 95 % 42 % 1013,4 hPa 0,0 l/m 4,5 km/h (1 Bft) O 90 0 min 0,0 UV-I 16,8 C 20,8 C 2,9 km/h (1 Bft)
20.06.2012 16:35 19,3 C 23,4 C 18,7 C 21,1 C 21,1 C 1,8 C 87 % 94 % 47 % 1013,4 hPa 0,0 l/m 3,2 km/h (1 Bft) O 90 0 min 0,0 UV-I 17,1 C 21,1 C 6,3 km/h (2 Bft)
20.06.2012 16:40 19,5 C 23,4 C 18,7 C 21,3 C 21,3 C 1,8 C 87 % 94 % 47 % 1013,4 hPa 0,0 l/m 2,7 km/h (1 Bft) SW 225 0 min 0,0 UV-I 17,3 C 21,3 C 5,1 km/h (1 Bft)
20.06.2012 16:45 19,3 C 23,4 C 18,6 C 20,9 C 20,9 C 1,6 C 86 % 94 % 42 % 1013,2 hPa 0,0 l/m 3,2 km/h (1 Bft) O-SO 112 0 min 0,0 UV-I 16,9 C 20,9 C 3,4 km/h (1 Bft)
20.06.2012 16:50 19,2 C 23,4 C 18,7 C 20,8 C 20,8 C 1,6 C 86 % 94 % 42 % 1013,2 hPa 0,0 l/m 3,5 km/h (1 Bft) O 90 0 min 0,0 UV-I 16,8 C 20,8 C 4,2 km/h (1 Bft)
20.06.2012 16:55 19,3 C 23,4 C 18,7 C 20,8 C 20,8 C 1,5 C 87 % 94 % 39 % 1013,2 hPa 0,0 l/m 3,9 km/h (1 Bft) O 90 0 min 0,0 UV-I 17,1 C 20,8 C 3,1 km/h (1 Bft)
20.06.2012 17:00 19,3 C 23,5 C 18,7 C 21,2 C 21,2 C 1,9 C 87 % 94 % 50 % 1013,2 hPa 0,0 l/m 3,9 km/h (1 Bft) O 90 0 min 0,0 UV-I 17,1 C 21,2 C 4,5 km/h (1 Bft)
20.06.2012 17:11 19,3 C 23,5 C 18,7 C 20,9 C 20,9 C 1,6 C 87 % 94 % 42 % 1013,0 hPa 0,0 l/m 3,9 km/h (1 Bft) N 0 0 min 0,0 UV-I 17,1 C 20,9 C 3,5 km/h (1 Bft)
20.06.2012 17:20 19,3 C 23,5 C 18,6 C 20,8 C 20,8 C 1,5 C 87 % 94 % 39 % 1013,0 hPa 0,0 l/m 2,4 km/h (1 Bft) O-NO 67 0 min 0,0 UV-I 17,1 C 20,8 C 3,2 km/h (1 Bft)
20.06.2012 17:25 19,4 C 23,5 C 18,7 C 21,1 C 21,1 C 1,7 C 87 % 94 % 45 % 1012,4 hPa 0,0 l/m 1,3 km/h (1 Bft) NO 45 0 min 0,0 UV-I 17,2 C 21,1 C 0,0 km/h (0 Bft)
20.06.2012 17:30 19,6 C 23,5 C 18,7 C 21,1 C 21,1 C 1,5 C 87 % 94 % 39 % 1012,4 hPa 0,0 l/m 0,5 km/h (0 Bft) N 360 0 min 0,0 UV-I 17,4 C 21,1 C 0,0 km/h (0 Bft)
20.06.2012 17:35 19,6 C 23,6 C 18,6 C 20,8 C 20,8 C 1,2 C 87 % 94 % 32 % 1012,4 hPa 0,0 l/m 0,3 km/h (0 Bft) O-NO 67 0 min 0,0 UV-I 17,4 C 20,8 C 0,0 km/h (0 Bft)
20.06.2012 17:40 19,5 C 23,5 C 18,7 C 20,8 C 20,8 C 1,3 C 87 % 94 % 34 % 1012,4 hPa 0,0 l/m 0,5 km/h (0 Bft) NO 45 0 min 0,0 UV-I 17,3 C 20,8 C 2,1 km/h (1 Bft)
20.06.2012 17:45 19,5 C 23,6 C 18,7 C 20,6 C 20,6 C 1,1 C 87 % 94 % 29 % 1012,9 hPa 0,0 l/m 0,5 km/h (0 Bft) O-NO 67 0 min 0,0 UV-I 17,3 C 20,6 C 0,0 km/h (0 Bft)
20.06.2012 17:50 19,6 C 23,6 C 18,6 C 20,6 C 20,6 C 1,0 C 87 % 94 % 26 % 1012,9 hPa 0,0 l/m 0,2 km/h (0 Bft) O 90 0 min 0,0 UV-I 17,4 C 20,6 C 0,0 km/h (0 Bft)
20.06.2012 17:55 19,7 C 23,6 C 18,5 C 20,3 C 20,3 C 0,6 C 87 % 94 % 16 % 1012,9 hPa 0,0 l/m 0,0 km/h (0 Bft) O-NO 67 0 min 0,0 UV-I 17,5 C 20,3 C 0,0 km/h (0 Bft)
20.06.2012 18:00 19,6 C 23,6 C 18,5 C 20,1 C 20,1 C 0,5 C 87 % 94 % 13 % 1012,9 hPa 0,0 l/m 0,2 km/h (0 Bft) O-NO 67 0 min 0,0 UV-I 17,4 C 20,1 C 0,0 km/h (0 Bft)
20.06.2012 18:12 19,5 C 23,7 C 18,5 C 19,8 C 19,8 C 0,3 C 88 % 94 % 8 % 1012,8 hPa 0,0 l/m 0,6 km/h (0 Bft) N 0 0 min 0,0 UV-I 17,5 C 19,8 C 0,0 km/h (0 Bft)
20.06.2012 18:20 19,4 C 23,7 C 18,5 C 20,1 C 20,1 C 0,7 C 88 % 94 % 18 % 1012,8 hPa 0,0 l/m 0,3 km/h (0 Bft) N-NO 22 0 min 0,0 UV-I 17,4 C 20,1 C 0,0 km/h (0 Bft)
20.06.2012 18:25 19,5 C 23,6 C 18,6 C 20,2 C 20,2 C 0,7 C 88 % 94 % 18 % 1012,6 hPa 0,0 l/m 0,6 km/h (0 Bft) NO 45 0 min 0,0 UV-I 17,5 C 20,2 C 1,8 km/h (1 Bft)
20.06.2012 18:30 19,5 C 23,6 C 18,5 C 20,1 C 20,1 C 0,6 C 88 % 94 % 16 % 1012,6 hPa 0,0 l/m 0,6 km/h (0 Bft) O-SO 112 0 min 0,0 UV-I 17,5 C 20,1 C 2,3 km/h (1 Bft)
20.06.2012 18:35 19,5 C 23,7 C 18,5 C 20,0 C 20,0 C 0,5 C 88 % 94 % 13 % 1012,6 hPa 0,0 l/m 0,5 km/h (0 Bft) O 90 0 min 0,0 UV-I 17,5 C 20,0 C 0,0 km/h (0 Bft)
20.06.2012 18:40 19,4 C 23,6 C 18,6 C 20,0 C 20,0 C 0,6 C 88 % 94 % 16 % 1012,6 hPa 0,0 l/m 0,5 km/h (0 Bft) NO 45 0 min 0,0 UV-I 17,4 C 20,0 C 0,0 km/h (0 Bft)
20.06.2012 18:45 19,5 C 23,7 C 18,5 C 20,1 C 20,1 C 0,6 C 88 % 94 % 16 % 1012,6 hPa 0,0 l/m 0,5 km/h (0 Bft) O-SO 112 0 min 0,0 UV-I 17,5 C 20,1 C 0,0 km/h (0 Bft)
20.06.2012 18:50 19,5 C 23,7 C 18,5 C 20,1 C 20,1 C 0,6 C 88 % 94 % 16 % 1012,6 hPa 0,0 l/m 0,3 km/h (0 Bft) O-NO 67 0 min 0,0 UV-I 17,5 C 20,1 C 1,6 km/h (1 Bft)
20.06.2012 18:55 19,5 C 23,6 C 18,4 C 20,1 C 20,1 C 0,6 C 88 % 94 % 16 % 1012,6 hPa 0,0 l/m 0,2 km/h (0 Bft) O-NO 67 0 min 0,0 UV-I 17,5 C 20,1 C 0,0 km/h (0 Bft)
20.06.2012 19:00 19,4 C 23,7 C 18,5 C 20,1 C 20,1 C 0,7 C 88 % 94 % 18 % 1012,6 hPa 0,0 l/m 0,0 km/h (0 Bft) O 90 0 min 0,0 UV-I 17,4 C 20,1 C 0,0 km/h (0 Bft)
20.06.2012 19:11 19,3 C 23,7 C 18,4 C 19,9 C 19,9 C 0,6 C 88 % 94 % 16 % 1012,7 hPa 0,0 l/m 0,2 km/h (0 Bft) N 0 0 min 0,0 UV-I 17,3 C 19,9 C 1,6 km/h (1 Bft)
20.06.2012 19:20 19,1 C 23,7 C 18,4 C 19,5 C 19,5 C 0,4 C 88 % 94 % 11 % 1012,7 hPa 0,0 l/m 0,6 km/h (0 Bft) O-NO 67 0 min 0,0 UV-I 17,1 C 19,5 C 2,6 km/h (1 Bft)
20.06.2012 19:25 19,1 C 23,7 C 18,4 C 19,4 C 19,4 C 0,3 C 88 % 94 % 8 % 1012,8 hPa 0,0 l/m 1,4 km/h (1 Bft) O 90 0 min 0,0 UV-I 17,1 C 19,4 C 2,1 km/h (1 Bft)
20.06.2012 19:30 19,1 C 23,8 C 18,4 C 19,4 C 19,4 C 0,3 C 88 % 94 % 8 % 1012,8 hPa 0,0 l/m 1,3 km/h (1 Bft) O 90 0 min 0,0 UV-I 17,1 C 19,4 C 2,1 km/h (1 Bft)
20.06.2012 19:35 19,0 C 23,8 C 18,4 C 19,3 C 19,3 C 0,3 C 88 % 94 % 8 % 1012,8 hPa 0,0 l/m 0,8 km/h (0 Bft) O-NO 67 0 min 0,0 UV-I 17,0 C 19,3 C 1,8 km/h (1 Bft)
20.06.2012 19:40 18,9 C 23,8 C 18,5 C 19,3 C 19,3 C 0,4 C 88 % 94 % 11 % 1012,8 hPa 0,0 l/m 0,8 km/h (0 Bft) O-NO 67 0 min 0,0 UV-I 16,9 C 19,3 C 1,6 km/h (1 Bft)
20.06.2012 19:45 18,9 C 23,8 C 18,5 C 19,3 C 19,3 C 0,4 C 89 % 94 % 11 % 1012,5 hPa 0,0 l/m 0,5 km/h (0 Bft) NO 45 0 min 0,0 UV-I 17,0 C 19,3 C 0,0 km/h (0 Bft)
20.06.2012 19:50 18,8 C 23,8 C 18,4 C 19,3 C 19,3 C 0,5 C 89 % 94 % 13 % 1012,5 hPa 0,0 l/m 0,2 km/h (0 Bft) O 90 0 min 0,0 UV-I 16,9 C 19,3 C 0,0 km/h (0 Bft)
20.06.2012 19:55 18,9 C 23,8 C 18,4 C 19,3 C 19,3 C 0,4 C 89 % 94 % 11 % 1012,5 hPa 0,0 l/m 0,2 km/h (0 Bft) NO 45 0 min 0,0 UV-I 17,0 C 19,3 C 0,0 km/h (0 Bft)
20.06.2012 20:00 18,9 C 23,8 C 18,5 C 19,3 C 19,3 C 0,4 C 89 % 94 % 11 % 1012,5 hPa 0,0 l/m 0,2 km/h (0 Bft) N-NW 337 0 min 0,0 UV-I 17,0 C 19,3 C 2,4 km/h (1 Bft)
20.06.2012 20:11 18,8 C 23,8 C 18,4 C 19,2 C 19,2 C 0,4 C 89 % 94 % 11 % 1012,0 hPa 0,0 l/m 0,3 km/h (0 Bft) N 0 0 min 0,0 UV-I 16,9 C 19,2 C 0,0 km/h (0 Bft)
20.06.2012 20:20 18,8 C 23,8 C 18,3 C 19,1 C 19,1 C 0,3 C 89 % 94 % 8 % 1012,0 hPa 0,0 l/m 1,0 km/h (0 Bft) W-NW 292 0 min 0,0 UV-I 16,9 C 19,1 C 0,0 km/h (0 Bft)
20.06.2012 20:25 18,8 C 23,8 C 18,3 C 19,1 C 19,1 C 0,3 C 89 % 94 % 8 % 1011,8 hPa 0,0 l/m 0,6 km/h (0 Bft) SO 135 0 min 0,0 UV-I 16,9 C 19,1 C 0,0 km/h (0 Bft)
20.06.2012 20:30 18,7 C 23,8 C 18,3 C 19,1 C 19,1 C 0,4 C 89 % 94 % 11 % 1011,8 hPa 0,0 l/m 0,3 km/h (0 Bft) NO 45 0 min 0,0 UV-I 16,8 C 19,1 C 1,6 km/h (1 Bft)
20.06.2012 20:35 18,7 C 23,8 C 18,3 C 19,0 C 19,0 C 0,3 C 89 % 94 % 8 % 1011,8 hPa 0,0 l/m 0,3 km/h (0 Bft) SO 135 0 min 0,0 UV-I 16,8 C 19,0 C 0,0 km/h (0 Bft)
20.06.2012 20:40 18,7 C 23,8 C 18,3 C 19,0 C 19,0 C 0,3 C 89 % 95 % 8 % 1011,8 hPa 0,0 l/m 0,5 km/h (0 Bft) O-NO 67 0 min 0,0 UV-I 16,8 C 19,0 C 0,0 km/h (0 Bft)
20.06.2012 20:45 18,7 C 23,8 C 18,3 C 18,9 C 18,9 C 0,2 C 89 % 95 % 5 % 1012,1 hPa 0,0 l/m 0,2 km/h (0 Bft) NO 45 0 min 0,0 UV-I 16,8 C 18,9 C 0,0 km/h (0 Bft)
20.06.2012 20:50 18,6 C 23,8 C 18,3 C 18,8 C 18,8 C 0,2 C 89 % 95 % 5 % 1012,1 hPa 0,0 l/m 0,0 km/h (0 Bft) O-NO 67 0 min 0,0 UV-I 16,7 C 18,8 C 0,0 km/h (0 Bft)
20.06.2012 20:55 18,5 C 23,8 C 18,3 C 18,8 C 18,8 C 0,3 C 89 % 95 % 8 % 1012,1 hPa 0,0 l/m 0,2 km/h (0 Bft) O 90 0 min 0,0 UV-I 16,7 C 18,8 C 1,9 km/h (1 Bft)
20.06.2012 21:00 18,4 C 23,8 C 18,3 C 18,8 C 18,8 C 0,4 C 89 % 95 % 11 % 1012,1 hPa 0,0 l/m 0,5 km/h (0 Bft) O-NO 67 0 min 0,0 UV-I 16,6 C 18,8 C 0,0 km/h (0 Bft)
20.06.2012 21:11 18,4 C 23,8 C 18,3 C 18,6 C 18,6 C 0,2 C 89 % 95 % 5 % 1012,2 hPa 0,0 l/m 0,8 km/h (0 Bft) N 0 11 min 0,0 UV-I 16,6 C 18,6 C 0,0 km/h (0 Bft)
20.06.2012 21:20 18,3 C 23,8 C 18,3 C 18,4 C 18,4 C 0,1 C 89 % 95 % 0 % 1012,2 hPa 0,0 l/m 1,0 km/h (0 Bft) O 90 0 min 0,0 UV-I 16,5 C 18,4 C 2,9 km/h (1 Bft)
20.06.2012 21:25 18,3 C 23,8 C 18,3 C 18,3 C 18,3 C 0,0 C 90 % 95 % 0 % 1012,1 hPa 0,0 l/m 2,7 km/h (1 Bft) O-NO 67 0 min 0,0 UV-I 16,6 C 18,3 C 7,1 km/h (2 Bft)
20.06.2012 21:30 18,1 C 23,8 C 18,2 C 18,3 C 18,3 C 0,2 C 90 % 95 % 0 % 1012,1 hPa 0,0 l/m 4,3 km/h (1 Bft) O-NO 67 0 min 0,0 UV-I 16,4 C 18,3 C 5,5 km/h (1 Bft)
20.06.2012 21:35 18,0 C 23,8 C 18,2 C 18,2 C 18,2 C 0,2 C 90 % 95 % 0 % 1012,1 hPa 0,0 l/m 4,3 km/h (1 Bft) O-NO 67 0 min 0,0 UV-I 16,3 C 18,2 C 2,6 km/h (1 Bft)
20.06.2012 21:40 18,0 C 23,8 C 18,2 C 18,2 C 18,2 C 0,2 C 90 % 95 % 0 % 1012,1 hPa 0,0 l/m 2,9 km/h (1 Bft) O 90 0 min 0,0 UV-I 16,3 C 18,2 C 3,5 km/h (1 Bft)
20.06.2012 21:45 18,1 C 23,8 C 18,1 C 18,2 C 18,2 C 0,1 C 90 % 95 % 0 % 1012,4 hPa 0,0 l/m 1,1 km/h (1 Bft) O-NO 67 0 min 0,0 UV-I 16,4 C 18,2 C 0,0 km/h (0 Bft)
20.06.2012 21:50 18,1 C 23,8 C 18,1 C 18,2 C 18,2 C 0,1 C 90 % 95 % 0 % 1012,4 hPa 0,0 l/m 0,8 km/h (0 Bft) O-NO 67 0 min 0,0 UV-I 16,4 C 18,2 C 0,0 km/h (0 Bft)
20.06.2012 21:55 18,0 C 23,8 C 18,1 C 18,1 C 18,1 C 0,1 C 90 % 95 % 0 % 1012,4 hPa 0,0 l/m 0,5 km/h (0 Bft) O-NO 67 0 min 0,0 UV-I 16,3 C 18,1 C 2,4 km/h (1 Bft)
20.06.2012 22:00 17,9 C 23,8 C 18,1 C 18,0 C 18,0 C 0,1 C 90 % 95 % 0 % 1012,4 hPa 0,0 l/m 0,8 km/h (0 Bft) O-SO 112 0 min 0,0 UV-I 16,2 C 18,0 C 2,1 km/h (1 Bft)
20.06.2012 22:11 17,9 C 23,8 C 18,0 C 18,0 C 18,0 C 0,1 C 90 % 95 % 0 % 1012,6 hPa 0,0 l/m 1,4 km/h (1 Bft) N 0 0 min 0,0 UV-I 16,2 C 18,0 C 2,1 km/h (1 Bft)
20.06.2012 22:20 17,8 C 23,8 C 18,1 C 18,0 C 18,0 C 0,2 C 90 % 95 % 0 % 1012,6 hPa 0,0 l/m 1,1 km/h (1 Bft) O 90 0 min 0,0 UV-I 16,1 C 18,0 C 3,1 km/h (1 Bft)
20.06.2012 22:25 17,7 C 23,8 C 18,1 C 17,9 C 17,9 C 0,2 C 90 % 95 % 0 % 1012,4 hPa 0,0 l/m 1,9 km/h (1 Bft) O-NO 67 0 min 0,0 UV-I 16,0 C 17,9 C 1,6 km/h (1 Bft)
20.06.2012 22:30 17,7 C 23,8 C 18,0 C 17,9 C 17,9 C 0,2 C 90 % 95 % 0 % 1012,4 hPa 0,0 l/m 1,4 km/h (1 Bft) O-SO 112 0 min 0,0 UV-I 16,0 C 17,9 C 0,0 km/h (0 Bft)
20.06.2012 22:35 17,7 C 23,8 C 18,0 C 17,9 C 17,9 C 0,2 C 90 % 95 % 0 % 1012,4 hPa 0,0 l/m 0,3 km/h (0 Bft) W 270 0 min 0,0 UV-I 16,0 C 17,9 C 0,0 km/h (0 Bft)
20.06.2012 22:40 17,7 C 23,8 C 18,0 C 17,9 C 17,9 C 0,2 C 90 % 95 % 0 % 1012,4 hPa 0,0 l/m 0,5 km/h (0 Bft) N-NO 22 0 min 0,0 UV-I 16,0 C 17,9 C 2,3 km/h (1 Bft)
20.06.2012 22:45 17,6 C 23,8 C 18,0 C 17,8 C 17,8 C 0,2 C 90 % 95 % 0 % 1012,1 hPa 0,0 l/m 0,6 km/h (0 Bft) N-NW 337 0 min 0,0 UV-I 15,9 C 17,8 C 0,0 km/h (0 Bft)
20.06.2012 22:50 17,7 C 23,8 C 17,9 C 17,8 C 17,8 C 0,1 C 90 % 95 % 0 % 1012,1 hPa 0,0 l/m 0,3 km/h (0 Bft) W 270 0 min 0,0 UV-I 16,0 C 17,8 C 0,0 km/h (0 Bft)
20.06.2012 22:55 17,6 C 23,8 C 17,9 C 17,8 C 17,8 C 0,2 C 90 % 95 % 0 % 1012,1 hPa 0,0 l/m 0,0 km/h (0 Bft) O-NO 67 0 min 0,0 UV-I 15,9 C 17,8 C 0,0 km/h (0 Bft)
20.06.2012 23:00 17,6 C 23,8 C 17,9 C 17,8 C 17,8 C 0,2 C 90 % 95 % 0 % 1012,1 hPa 0,0 l/m 0,0 km/h (0 Bft) NW 315 0 min 0,0 UV-I 15,9 C 17,8 C 0,0 km/h (0 Bft)
20.06.2012 23:11 17,5 C 23,8 C 17,9 C 17,7 C 17,7 C 0,2 C 90 % 95 % 0 % 1012,6 hPa 0,0 l/m 0,3 km/h (0 Bft) N 0 0 min 0,0 UV-I 15,8 C 17,7 C 2,7 km/h (1 Bft)
20.06.2012 23:20 17,5 C 23,8 C 17,9 C 17,6 C 17,6 C 0,1 C 90 % 95 % 0 % 1012,6 hPa 0,0 l/m 1,4 km/h (1 Bft) O-NO 67 0 min 0,0 UV-I 15,8 C 17,6 C 0,0 km/h (0 Bft)
20.06.2012 23:25 17,5 C 23,8 C 17,9 C 17,6 C 17,6 C 0,1 C 91 % 95 % 0 % 1012,2 hPa 0,0 l/m 0,2 km/h (0 Bft) NO 45 0 min 0,0 UV-I 16,0 C 17,6 C 0,0 km/h (0 Bft)
20.06.2012 23:30 17,5 C 23,8 C 17,9 C 17,6 C 17,6 C 0,1 C 91 % 95 % 0 % 1012,2 hPa 0,0 l/m 0,2 km/h (0 Bft) O-NO 67 0 min 0,0 UV-I 16,0 C 17,6 C 0,0 km/h (0 Bft)
20.06.2012 23:35 17,3 C 23,8 C 17,9 C 17,5 C 17,5 C 0,2 C 91 % 95 % 0 % 1012,2 hPa 0,0 l/m 0,0 km/h (0 Bft) O-NO 67 0 min 0,0 UV-I 15,8 C 17,5 C 0,0 km/h (0 Bft)
20.06.2012 23:40 17,3 C 23,8 C 17,8 C 17,5 C 17,5 C 0,2 C 91 % 95 % 0 % 1012,2 hPa 0,0 l/m 0,3 km/h (0 Bft) O-NO 67 0 min 0,0 UV-I 15,8 C 17,5 C 2,3 km/h (1 Bft)
20.06.2012 23:45 17,3 C 23,8 C 17,9 C 17,5 C 17,5 C 0,2 C 91 % 95 % 0 % 1012,1 hPa 0,0 l/m 0,5 km/h (0 Bft) SW 225 0 min 0,0 UV-I 15,8 C 17,5 C 2,4 km/h (1 Bft)
20.06.2012 23:50 17,3 C 23,8 C 17,8 C 17,5 C 17,5 C 0,2 C 91 % 95 % 0 % 1012,1 hPa 0,0 l/m 0,5 km/h (0 Bft) NW 315 0 min 0,0 UV-I 15,8 C 17,5 C 0,0 km/h (0 Bft)
20.06.2012 23:55 17,2 C 23,8 C 17,8 C 17,5 C 17,5 C 0,3 C 91 % 95 % 0 % 1012,1 hPa 0,0 l/m 0,3 km/h (0 Bft) O-NO 67 0 min 0,0 UV-I 15,7 C 17,5 C 0,0 km/h (0 Bft)
_ Min-Zeit 04:55 12:20 05:40 05:40 05:40 00:00 00:00 00:00 00:00 20:25 - 00:35 - - - 00:00 04:35 05:40 00:20
Minimum _ 15,2 C 23,1 C 16,5 C 15,4 C 15,4 C 0,0 C 79 % 90 % 0 % 1011,8 hPa - 0,0 km/h (0 Bft) - - - 0,0 UV-I 13,5 C 15,4 C 0,0 km/h (0 Bft)
_ Max-Zeit 12:45 02:07 15:30 12:45 12:45 08:20 07:45 05:40 07:35 03:11 00:00 15:45 - - 05:11 00:00 17:55 12:45 03:45
Maximum _ 20,0 C 24,2 C 18,8 C 23,8 C 23,8 C 5,0 C 92 % 96 % 100 % 1017,2 hPa 0,0 l/m 6,3 km/h
O-SO (2 Bft)
- - 11 min 0,0 UV-I 17,5 C 23,8 C 13,4 km/h
N-NW (3 Bft)
Durchschnitt _ 18,1 C 23,6 C 17,9 C 19,3 C 19,3 C 1,2 C 87 % 94 % 31 % 1014,0 hPa #0,0 l/m 1,3 km/h (1 Bft) O - #2:28 h 0,0 UV-I 16,0 C 19,3 C 1,6 km/h (1 Bft)
2012 www.wetterstation-wechselburg.de